Location: Wiler
(46.4041°N, 7.7840°E)
Time: 09:13:21
(UTC+00:00)

Cosmos 1980 Rocket - Pass Details

Date: 09 April 2020
Orbit: 829 x 850 km, 71.0° (Epoch: 24 May)

Event Time Altitude Azimuth Distance (km) Brightness Sun altitude
Rises 19:52:58 0° 340° (NNW) 3,388 6.2 -17.3°
Reaches altitude 10° 19:56:11 10° 358° (N) 2,453 5.1 -17.8°
Maximum altitude 20:00:05 19° 43° (NE) 1,902 3.9 -18.3°
Enters shadow 20:02:17 15° 71° (ENE) 2,091 3.9 -18.7°
